Back to catalog

DELTA 1 R/B

AliveHEO
NORAD 3315·ROCKET BODY·🇺🇸 United States

Launched Jul 4, 1968 from Vandenberg Space Force Base

Loading…

Next Passes (next 24 hours)

TLE

FreshSource: Space-Track

Epoch: Sep 14, 2026, 04:03 UTC

1 03315U 68055B   26257.16934694  .00000110  00000-0  34900-3 0  9991
2 03315 120.6672 351.9663 2628195 286.6519  72.0359  9.25767284949795

Track DELTA 1 R/B in real time with AllMySat

Download on the App Store